Location: Prague
(50.0830°N, 14.4670°E)
Time: 08:21:03
(UTC+01:00)

XW-2F - Pass Details

Date: 29 November 2021
Orbit: 494 x 515 km, 97.5° (Epoch: 18 January)

Event Time Altitude Azimuth Distance (km) Brightness Sun altitude
Rises 06:20:47 0° 14° (NNE) 2,654 ? -11.7°
Reaches altitude 10° 06:22:54 10° 15° (NNE) 1,763 ? -11.4°
Maximum altitude 06:26:43 79° 103° (ESE) 535 ? -10.8°
Drops below altitude 10° 06:30:29 10° 191° (S) 1,747 ? -10.2°
Sets 06:32:34 0° 192° (SSW) 2,629 ? -9.9°
